owner,sensor,date,latitude,longitude,vertical_datum,direction_of_sea_water_velocity,sea_water_speed,upward_sea_water_velocity,qcFlag 
TABS,ioos:station:wmo:42047:1,2012-01-01T00:00:00Z,27.8966,-93.5973,2.0,107.3254456,7.186042026,-99999.0,'11133222,11111222,99999999' 
TABS,ioos:station:wmo:42047:1,2012-01-01T00:30:00Z,27.8966,-93.5973,2.0,125.1945111,7.183070374,-99999.0,'11133222,11111222,99999999' 
TABS,ioos:station:wmo:42047:1,2012-01-01T01:00:00Z,27.8966,-93.5973,2.0,142.81517,6.916104395,-99999.0,'11133222,11111222,99999999' 
TABS,ioos:station:wmo:42047:1,2012-01-01T01:30:00Z,27.8966,-93.5973,2.0,152.8898855,6.583281856,-99999.0,'11133222,11111222,99999999' 
TABS,ioos:station:wmo:42047:1,2012-01-01T02:00:00Z,27.8966,-93.5973,2.0,162.8453313,9.764389382,-99999.0,'11133222,11111222,99999999' 
TABS,ioos:station:wmo:42047:1,2012-01-01T02:30:00Z,27.8966,-93.5973,2.0,163.6018356,11.47683319,-99999.0,'11111222,11111222,99999999' 
TABS,ioos:station:wmo:42047:1,2012-01-01T03:00:00Z,27.8966,-93.5973,2.0,165.2412907,15.58415221,-99999.0,'11111222,11111222,99999999' 
TABS,ioos:station:wmo:42047:1,2012-01-01T03:30:00Z,27.8966,-93.5973,2.0,168.1601101,11.4536719,-99999.0,'11111222,11111222,99999999' 
TABS,ioos:station:wmo:42047:1,2012-01-01T04:00:00Z,27.8966,-93.5973,2.0,181.2334938,10.6824763,-99999.0,'11111222,11111222,99999999' 
TABS,ioos:station:wmo:42047:1,2012-01-01T04:30:00Z,27.8966,-93.5973,2.0,177.1521976,9.661930449,-99999.0,'11133222,11111222,99999999' 
TABS,ioos:station:wmo:42047:1,2012-01-01T05:00:00Z,27.8966,-93.5973,2.0,182.1992525,14.07036602,-99999.0,'11111222,11111222,99999999' 
TABS,ioos:station:wmo:42047:1,2012-01-01T05:30:00Z,27.8966,-93.5973,2.0,189.536403,15.2102071,-99999.0,'11111222,11111222,99999999' 
TABS,ioos:station:wmo:42047:1,2012-01-01T06:00:00Z,27.8966,-93.5973,2.0,187.2384991,14.99954999,-99999.0,'11111222,11111222,99999999' 
TABS,ioos:station:wmo:42047:1,2012-01-01T06:30:00Z,27.8966,-93.5973,2.0,189.9242368,15.89789923,-99999.0,'11111222,11111222,99999999' 
TABS,ioos:station:wmo:42047:1,2012-01-01T07:00:00Z,27.8966,-93.5973,2.0,190.1920408,16.38862105,-99999.0,'11111222,11111222,99999999' 
TABS,ioos:station:wmo:42047:1,2012-01-01T07:30:00Z,27.8966,-93.5973,2.0,193.343049,15.64226646,-99999.0,'11111222,11111222,99999999' 
TABS,ioos:station:wmo:42047:1,2012-01-01T08:00:00Z,27.8966,-93.5973,2.0,213.1247921,15.18842981,-99999.0,'11111222,11111222,99999999' 
TABS,ioos:station:wmo:42047:1,2012-01-01T08:30:00Z,27.8966,-93.5973,2.0,210.9107361,13.04247293,-99999.0,'11111222,11111222,99999999' 
TABS,ioos:station:wmo:42047:1,2012-01-01T09:00:00Z,27.8966,-93.5973,2.0,197.0703599,10.49224952,-99999.0,'11111222,11111222,99999999' 
TABS,ioos:station:wmo:42047:1,2012-01-01T09:30:00Z,27.8966,-93.5973,2.0,197.8043691,10.92316804,-99999.0,'11111222,11111222,99999999' 
TABS,ioos:station:wmo:42047:1,2012-01-01T10:00:00Z,27.8966,-93.5973,2.0,210.5938295,13.5572453,-99999.0,'11111222,11111222,99999999' 
TABS,ioos:station:wmo:42047:1,2012-01-01T10:30:00Z,27.8966,-93.5973,2.0,207.4901194,12.73830444,-99999.0,'11111222,11111222,99999999' 
TABS,ioos:station:wmo:42047:1,2012-01-01T11:00:00Z,27.8966,-93.5973,2.0,199.3155081,9.462652905,-99999.0,'11133222,11111222,99999999' 
TABS,ioos:station:wmo:42047:1,2012-01-01T11:30:00Z,27.8966,-93.5973,2.0,200.5092616,8.648173218,-99999.0,'11133222,11111222,99999999' 
TABS,ioos:station:wmo:42047:1,2012-01-01T12:00:00Z,27.8966,-93.5973,2.0,205.2142473,11.38474857,-99999.0,'11111222,11111222,99999999' 
TABS,ioos:station:wmo:42047:1,2012-01-01T12:30:00Z,27.8966,-93.5973,2.0,202.0312096,10.63671472,-99999.0,'11111222,11111222,99999999' 
TABS,ioos:station:wmo:42047:1,2012-01-01T13:00:00Z,27.8966,-93.5973,2.0,199.9746119,11.8849695,-99999.0,'11111222,11111222,99999999' 
TABS,ioos:station:wmo:42047:1,2012-01-01T13:30:00Z,27.8966,-93.5973,2.0,209.2315647,9.419575362,-99999.0,'11133222,11111222,99999999' 
TABS,ioos:station:wmo:42047:1,2012-01-01T14:00:00Z,27.8966,-93.5973,2.0,217.610097,12.53504687,-99999.0,'11111222,11111222,99999999' 
TABS,ioos:station:wmo:42047:1,2012-01-01T14:30:00Z,27.8966,-93.5973,2.0,211.4315122,12.17680582,-99999.0,'11111222,11111222,99999999' 
TABS,ioos:station:wmo:42047:1,2012-01-01T15:00:00Z,27.8966,-93.5973,2.0,209.6109461,11.69774765,-99999.0,'11111222,11111222,99999999' 
TABS,ioos:station:wmo:42047:1,2012-01-01T15:30:00Z,27.8966,-93.5973,2.0,211.1785534,10.50779235,-99999.0,'11111222,11111222,99999999' 
TABS,ioos:station:wmo:42047:1,2012-01-01T16:00:00Z,27.8966,-93.5973,2.0,206.759993,13.12579521,-99999.0,'11111222,11111222,99999999' 
TABS,ioos:station:wmo:42047:1,2012-01-01T16:30:00Z,27.8966,-93.5973,2.0,212.5737705,12.38880543,-99999.0,'11111222,11111222,99999999' 
TABS,ioos:station:wmo:42047:1,2012-01-01T17:00:00Z,27.8966,-93.5973,2.0,242.5447424,13.53431565,-99999.0,'11111222,11111222,99999999' 
TABS,ioos:station:wmo:42047:1,2012-01-01T17:30:00Z,27.8966,-93.5973,2.0,227.3404763,14.196408,-99999.0,'11111222,11111222,99999999' 
TABS,ioos:station:wmo:42047:1,2012-01-01T18:00:00Z,27.8966,-93.5973,2.0,204.1164067,18.11079512,-99999.0,'11111222,11111222,99999999' 
TABS,ioos:station:wmo:42047:1,2012-01-01T18:30:00Z,27.8966,-93.5973,2.0,210.7864961,23.87443193,-99999.0,'11111222,11111222,99999999' 
TABS,ioos:station:wmo:42047:1,2012-01-01T19:00:00Z,27.8966,-93.5973,2.0,211.7569385,20.55779171,-99999.0,'11111222,11111222,99999999' 
TABS,ioos:station:wmo:42047:1,2012-01-01T19:30:00Z,27.8966,-93.5973,2.0,213.9634815,22.64312037,-99999.0,'11111222,11111222,99999999' 
TABS,ioos:station:wmo:42047:1,2012-01-01T20:00:00Z,27.8966,-93.5973,2.0,216.7910885,24.8120233,-99999.0,'11111222,11111222,99999999' 
TABS,ioos:station:wmo:42047:1,2012-01-01T20:30:00Z,27.8966,-93.5973,2.0,215.4647311,19.25178693,-99999.0,'11111222,11111222,99999999' 
TABS,ioos:station:wmo:42047:1,2012-01-01T21:00:00Z,27.8966,-93.5973,2.0,214.3572702,18.56984922,-99999.0,'11111222,11111222,99999999' 
TABS,ioos:station:wmo:42047:1,2012-01-01T21:30:00Z,27.8966,-93.5973,2.0,215.8511735,18.67895072,-99999.0,'11111222,11111222,99999999' 
TABS,ioos:station:wmo:42047:1,2012-01-01T22:00:00Z,27.8966,-93.5973,2.0,223.1869647,14.97694562,-99999.0,'11111222,11111222,99999999' 
TABS,ioos:station:wmo:42047:1,2012-01-01T22:30:00Z,27.8966,-93.5973,2.0,209.4396238,17.47674169,-99999.0,'11111222,11111222,99999999' 
TABS,ioos:station:wmo:42047:1,2012-01-01T23:00:00Z,27.8966,-93.5973,2.0,211.9155535,18.99094521,-99999.0,'11111222,11111222,99999999' 
TABS,ioos:station:wmo:42047:1,2012-01-01T23:30:00Z,27.8966,-93.5973,2.0,219.1800011,24.75612449,-99999.0,'11111222,11111222,99999999' 
TABS,ioos:station:wmo:42047:1,2012-01-02T00:00:00Z,27.8966,-93.5973,2.0,218.9841251,22.60339134,-99999.0,'11111222,11111222,99999999' 
TABS,ioos:station:wmo:42047:1,2012-01-02T00:30:00Z,27.8966,-93.5973,2.0,226.7508528,22.21352741,-99999.0,'11111222,11111222,99999999' 
TABS,ioos:station:wmo:42047:1,2012-01-02T01:00:00Z,27.8966,-93.5973,2.0,210.5639289,20.90447081,-99999.0,'11111222,11111222,99999999' 
TABS,ioos:station:wmo:42047:1,2012-01-02T01:30:00Z,27.8966,-93.5973,2.0,212.8853175,24.49520157,-99999.0,'11111222,11111222,99999999' 
TABS,ioos:station:wmo:42047:1,2012-01-02T02:00:00Z,27.8966,-93.5973,2.0,214.0917722,22.53247656,-99999.0,'11111222,11111222,99999999' 
TABS,ioos:station:wmo:42047:1,2012-01-02T02:30:00Z,27.8966,-93.5973,2.0,204.4973326,20.33014756,-99999.0,'11111222,11111222,99999999' 
TABS,ioos:station:wmo:42047:1,2012-01-02T03:00:00Z,27.8966,-93.5973,2.0,215.1503641,16.86559219,-99999.0,'11111222,11111222,99999999' 
TABS,ioos:station:wmo:42047:1,2012-01-02T03:30:00Z,27.8966,-93.5973,2.0,205.2455277,23.89201122,-99999.0,'11111222,11111222,99999999' 
TABS,ioos:station:wmo:42047:1,2012-01-02T04:00:00Z,27.8966,-93.5973,2.0,218.5869164,20.95541219,-99999.0,'11111222,11111222,99999999' 
TABS,ioos:station:wmo:42047:1,2012-01-02T04:30:00Z,27.8966,-93.5973,2.0,223.18618,21.45022144,-99999.0,'11111222,11111222,99999999' 
TABS,ioos:station:wmo:42047:1,2012-01-02T05:00:00Z,27.8966,-93.5973,2.0,213.2603216,25.16190772,-99999.0,'11111222,11111222,99999999' 
TABS,ioos:station:wmo:42047:1,2012-01-02T05:30:00Z,27.8966,-93.5973,2.0,213.3005956,22.45755552,-99999.0,'11111222,11111222,99999999' 
TABS,ioos:station:wmo:42047:1,2012-01-02T06:00:00Z,27.8966,-93.5973,2.0,221.3029822,22.04395836,-99999.0,'11111222,11111222,99999999' 
TABS,ioos:station:wmo:42047:1,2012-01-02T06:30:00Z,27.8966,-93.5973,2.0,215.6820035,20.26435294,-99999.0,'11111222,11111222,99999999' 
TABS,ioos:station:wmo:42047:1,2012-01-02T07:00:00Z,27.8966,-93.5973,2.0,220.6886866,21.25920977,-99999.0,'11111222,11111222,99999999' 
TABS,ioos:station:wmo:42047:1,2012-01-02T07:30:00Z,27.8966,-93.5973,2.0,218.7728393,21.3177602,-99999.0,'11111222,11111222,99999999' 
TABS,ioos:station:wmo:42047:1,2012-01-02T08:00:00Z,27.8966,-93.5973,2.0,224.5927314,18.91558352,-99999.0,'11111222,11111222,99999999' 
TABS,ioos:station:wmo:42047:1,2012-01-02T08:30:00Z,27.8966,-93.5973,2.0,213.7940089,15.24596012,-99999.0,'11111222,11111222,99999999' 
TABS,ioos:station:wmo:42047:1,2012-01-02T09:00:00Z,27.8966,-93.5973,2.0,230.3354581,20.75868252,-99999.0,'11111222,11111222,99999999' 
TABS,ioos:station:wmo:42047:1,2012-01-02T09:30:00Z,27.8966,-93.5973,2.0,217.3767818,19.88277898,-99999.0,'11111222,11111222,99999999' 
TABS,ioos:station:wmo:42047:1,2012-01-02T10:00:00Z,27.8966,-93.5973,2.0,228.3608058,17.84979552,-99999.0,'11111222,11111222,99999999' 
TABS,ioos:station:wmo:42047:1,2012-01-02T10:30:00Z,27.8966,-93.5973,2.0,230.5074093,23.6487653,-99999.0,'11111222,11111222,99999999' 
TABS,ioos:station:wmo:42047:1,2012-01-02T11:00:00Z,27.8966,-93.5973,2.0,232.3874952,20.84174897,-99999.0,'11111222,11111222,99999999' 
TABS,ioos:station:wmo:42047:1,2012-01-02T11:30:00Z,27.8966,-93.5973,2.0,235.3873498,22.74565453,-99999.0,'11111222,11111222,99999999' 
TABS,ioos:station:wmo:42047:1,2012-01-02T12:00:00Z,27.8966,-93.5973,2.0,240.5871531,23.94654881,-99999.0,'11111222,11111222,99999999' 
TABS,ioos:station:wmo:42047:1,2012-01-02T12:30:00Z,27.8966,-93.5973,2.0,247.9776996,15.92163622,-99999.0,'11111222,11111222,99999999' 
TABS,ioos:station:wmo:42047:1,2012-01-02T13:00:00Z,27.8966,-93.5973,2.0,249.9397814,15.94745434,-99999.0,'11111222,11111222,99999999' 
TABS,ioos:station:wmo:42047:1,2012-01-02T13:30:00Z,27.8966,-93.5973,2.0,238.6395268,17.60132097,-99999.0,'11111222,11111222,99999999' 
TABS,ioos:station:wmo:42047:1,2012-01-02T14:00:00Z,27.8966,-93.5973,2.0,240.0533414,17.28806814,-99999.0,'11111222,11111222,99999999' 
TABS,ioos:station:wmo:42047:1,2012-01-02T14:30:00Z,27.8966,-93.5973,2.0,237.9656676,16.98646814,-99999.0,'11111222,11111222,99999999' 
TABS,ioos:station:wmo:42047:1,2012-01-02T15:00:00Z,27.8966,-93.5973,2.0,239.8642524,16.01449656,-99999.0,'11111222,11111222,99999999' 
TABS,ioos:station:wmo:42047:1,2012-01-02T15:30:00Z,27.8966,-93.5973,2.0,215.6314254,16.28980356,-99999.0,'11111222,11111222,99999999' 
TABS,ioos:station:wmo:42047:1,2012-01-02T16:00:00Z,27.8966,-93.5973,2.0,254.0137832,19.46262315,-99999.0,'11111222,11111222,99999999' 
TABS,ioos:station:wmo:42047:1,2012-01-02T16:30:00Z,27.8966,-93.5973,2.0,240.7690429,18.65557557,-99999.0,'11111222,11111222,99999999' 
TABS,ioos:station:wmo:42047:1,2012-01-02T17:00:00Z,27.8966,-93.5973,2.0,243.8784961,16.73970729,-99999.0,'11111222,11111222,99999999' 
TABS,ioos:station:wmo:42047:1,2012-01-02T17:30:00Z,27.8966,-93.5973,2.0,231.3111776,12.47828514,-99999.0,'11111222,11111222,99999999' 
TABS,ioos:station:wmo:42047:1,2012-01-02T18:00:00Z,27.8966,-93.5973,2.0,224.1514931,10.50875825,-99999.0,'11111222,11111222,99999999' 
TABS,ioos:station:wmo:42047:1,2012-01-02T18:30:00Z,27.8966,-93.5973,2.0,208.1938083,11.64120269,-99999.0,'11111222,11111222,99999999' 
TABS,ioos:station:wmo:42047:1,2012-01-02T19:00:00Z,27.8966,-93.5973,2.0,230.491996,6.649045044,-99999.0,'11133222,11111222,99999999' 
TABS,ioos:station:wmo:42047:1,2012-01-02T19:30:00Z,27.8966,-93.5973,2.0,230.7065588,10.87972886,-99999.0,'11111222,11111222,99999999' 
TABS,ioos:station:wmo:42047:1,2012-01-02T20:00:00Z,27.8966,-93.5973,2.0,231.1483363,6.073631533,-99999.0,'11133222,11111222,99999999' 
TABS,ioos:station:wmo:42047:1,2012-01-02T20:30:00Z,27.8966,-93.5973,2.0,232.6128883,8.646351832,-99999.0,'11133222,11111222,99999999' 
TABS,ioos:station:wmo:42047:1,2012-01-02T21:00:00Z,27.8966,-93.5973,2.0,230.8918982,5.9925704,-99999.0,'11133222,11111222,99999999' 
TABS,ioos:station:wmo:42047:1,2012-01-02T21:30:00Z,27.8966,-93.5973,2.0,228.9212365,10.02904283,-99999.0,'11111222,11111222,99999999' 
TABS,ioos:station:wmo:42047:1,2012-01-02T22:00:00Z,27.8966,-93.5973,2.0,231.1645117,6.123601881,-99999.0,'11133222,11111222,99999999' 
TABS,ioos:station:wmo:42047:1,2012-01-02T22:30:00Z,27.8966,-93.5973,2.0,256.7331293,5.054898614,-99999.0,'11133222,11111222,99999999' 
TABS,ioos:station:wmo:42047:1,2012-01-02T23:00:00Z,27.8966,-93.5973,2.0,232.6573761,5.094173142,-99999.0,'11133222,11111222,99999999' 
TABS,ioos:station:wmo:42047:1,2012-01-02T23:30:00Z,27.8966,-93.5973,2.0,229.3157017,5.261653732,-99999.0,'11133222,11111222,99999999' 
TABS,ioos:station:wmo:42047:1,2012-01-03T00:00:00Z,27.8966,-93.5973,2.0,232.712646,3.846101923,-99999.0,'11133222,11111222,99999999' 
TABS,ioos:station:wmo:42047:1,2012-01-03T00:30:00Z,27.8966,-93.5973,2.0,234.6113516,7.580534282,-99999.0,'11133222,11111222,99999999' 
TABS,ioos:station:wmo:42047:1,2012-01-03T01:00:00Z,27.8966,-93.5973,2.0,206.5647786,5.612530624,-99999.0,'11133222,11111222,99999999' 
TABS,ioos:station:wmo:42047:1,2012-01-03T01:30:00Z,27.8966,-93.5973,2.0,273.4596789,5.800568938,-99999.0,'11133222,11111222,99999999' 
TABS,ioos:station:wmo:42047:1,2012-01-03T02:00:00Z,27.8966,-93.5973,2.0,249.0623428,3.693900378,-99999.0,'11133222,11111222,99999999' 
TABS,ioos:station:wmo:42047:1,2012-01-03T02:30:00Z,27.8966,-93.5973,2.0,213.5832314,5.965810926,-99999.0,'11133222,11111222,99999999' 
TABS,ioos:station:wmo:42047:1,2012-01-03T03:00:00Z,27.8966,-93.5973,2.0,219.3380125,9.891177887,-99999.0,'11133222,11111222,99999999' 
TABS,ioos:station:wmo:42047:1,2012-01-03T03:30:00Z,27.8966,-93.5973,2.0,187.9546574,11.56124993,-99999.0,'11111222,11111222,99999999' 
TABS,ioos:station:wmo:42047:1,2012-01-03T04:00:00Z,27.8966,-93.5973,2.0,206.4834506,6.301245909,-99999.0,'11133222,11111222,99999999' 
TABS,ioos:station:wmo:42047:1,2012-01-03T04:30:00Z,27.8966,-93.5973,2.0,220.3491284,10.11664964,-99999.0,'11111222,11111222,99999999' 
TABS,ioos:station:wmo:42047:1,2012-01-03T05:00:00Z,27.8966,-93.5973,2.0,200.9527666,8.277348609,-99999.0,'11133222,11111222,99999999' 
TABS,ioos:station:wmo:42047:1,2012-01-03T05:30:00Z,27.8966,-93.5973,2.0,234.2439303,10.07990575,-99999.0,'11111222,11111222,99999999' 
TABS,ioos:station:wmo:42047:1,2012-01-03T06:00:00Z,27.8966,-93.5973,2.0,204.1542937,9.995123811,-99999.0,'11133222,11111222,99999999' 
TABS,ioos:station:wmo:42047:1,2012-01-03T06:30:00Z,27.8966,-93.5973,2.0,189.9432696,13.89878052,-99999.0,'11111222,11111222,99999999' 
TABS,ioos:station:wmo:42047:1,2012-01-03T07:00:00Z,27.8966,-93.5973,2.0,195.3009178,16.37029322,-99999.0,'11111222,11111222,99999999' 
TABS,ioos:station:wmo:42047:1,2012-01-03T07:30:00Z,27.8966,-93.5973,2.0,186.8469226,15.60127238,-99999.0,'11111222,11111222,99999999' 
TABS,ioos:station:wmo:42047:1,2012-01-03T08:00:00Z,27.8966,-93.5973,2.0,209.3091107,14.19742582,-99999.0,'11111222,11111222,99999999' 
TABS,ioos:station:wmo:42047:1,2012-01-03T08:30:00Z,27.8966,-93.5973,2.0,198.3570589,14.00257833,-99999.0,'11111222,11111222,99999999' 
TABS,ioos:station:wmo:42047:1,2012-01-03T09:00:00Z,27.8966,-93.5973,2.0,216.2882671,12.41863922,-99999.0,'11111222,11111222,99999999' 
TABS,ioos:station:wmo:42047:1,2012-01-03T09:30:00Z,27.8966,-93.5973,2.0,216.3511025,8.840361984,-99999.0,'11133222,11111222,99999999' 
TABS,ioos:station:wmo:42047:1,2012-01-03T10:00:00Z,27.8966,-93.5973,2.0,208.5624145,12.44457311,-99999.0,'11111222,11111222,99999999' 
TABS,ioos:station:wmo:42047:1,2012-01-03T10:30:00Z,27.8966,-93.5973,2.0,172.0551745,11.35902285,-99999.0,'11111222,11111222,99999999' 
TABS,ioos:station:wmo:42047:1,2012-01-03T11:00:00Z,27.8966,-93.5973,2.0,205.2337295,10.20369541,-99999.0,'11111222,11111222,99999999' 
TABS,ioos:station:wmo:42047:1,2012-01-03T11:30:00Z,27.8966,-93.5973,2.0,237.0713263,9.805192502,-99999.0,'11133222,11111222,99999999' 
TABS,ioos:station:wmo:42047:1,2012-01-03T12:00:00Z,27.8966,-93.5973,2.0,202.7127811,8.986934961,-99999.0,'11133222,11111222,99999999' 
TABS,ioos:station:wmo:42047:1,2012-01-03T12:30:00Z,27.8966,-93.5973,2.0,228.9790575,9.781656301,-99999.0,'11133222,11111222,99999999' 
TABS,ioos:station:wmo:42047:1,2012-01-03T13:00:00Z,27.8966,-93.5973,2.0,219.0411768,10.08124,-99999.0,'11111222,11111222,99999999' 
TABS,ioos:station:wmo:42047:1,2012-01-03T13:30:00Z,27.8966,-93.5973,2.0,229.0008937,5.472202482,-99999.0,'11133222,11111222,99999999' 
TABS,ioos:station:wmo:42047:1,2012-01-03T14:00:00Z,27.8966,-93.5973,2.0,249.5543745,4.23689745,-99999.0,'11133222,11111222,99999999' 
TABS,ioos:station:wmo:42047:1,2012-01-03T14:30:00Z,27.8966,-93.5973,2.0,281.5332661,6.552289676,-99999.0,'11133222,11111222,99999999' 
TABS,ioos:station:wmo:42047:1,2012-01-03T15:00:00Z,27.8966,-93.5973,2.0,300.8369934,6.184254199,-99999.0,'11133222,11111222,99999999' 
TABS,ioos:station:wmo:42047:1,2012-01-03T15:30:00Z,27.8966,-93.5973,2.0,313.2119188,8.383298873,-99999.0,'11133222,11111222,99999999' 
TABS,ioos:station:wmo:42047:1,2012-01-03T16:00:00Z,27.8966,-93.5973,2.0,295.7664249,5.452063829,-99999.0,'11133222,11111222,99999999' 
TABS,ioos:station:wmo:42047:1,2012-01-03T16:30:00Z,27.8966,-93.5973,2.0,315.6905913,2.934706118,-99999.0,'11133222,11111222,99999999' 
TABS,ioos:station:wmo:42047:1,2012-01-03T17:00:00Z,27.8966,-93.5973,2.0,300.42761,5.311544032,-99999.0,'11133222,11111222,99999999' 
TABS,ioos:station:wmo:42047:1,2012-01-03T17:30:00Z,27.8966,-93.5973,2.0,300.7051434,3.035555962,-99999.0,'11133222,11111222,99999999' 
TABS,ioos:station:wmo:42047:1,2012-01-03T18:00:00Z,27.8966,-93.5973,2.0,306.8457784,4.686000427,-99999.0,'11133222,11111222,99999999' 
TABS,ioos:station:wmo:42047:1,2012-01-03T18:30:00Z,27.8966,-93.5973,2.0,328.7578145,2.467893839,-99999.0,'11133222,11111222,99999999' 
TABS,ioos:station:wmo:42047:1,2012-01-03T19:00:00Z,27.8966,-93.5973,2.0,315.3182683,6.371130198,-99999.0,'11133222,11111222,99999999' 
TABS,ioos:station:wmo:42047:1,2012-01-03T19:30:00Z,27.8966,-93.5973,2.0,352.0306187,3.029257335,-99999.0,'11133222,11111222,99999999' 
TABS,ioos:station:wmo:42047:1,2012-01-03T20:00:00Z,27.8966,-93.5973,2.0,339.8784685,2.470809584,-99999.0,'11133222,11111222,99999999' 
TABS,ioos:station:wmo:42047:1,2012-01-03T20:30:00Z,27.8966,-93.5973,2.0,351.2810218,6.464711904,-99999.0,'11133222,11111222,99999999' 
TABS,ioos:station:wmo:42047:1,2012-01-03T21:00:00Z,27.8966,-93.5973,2.0,7.954405956,3.685457909,-99999.0,'11133222,11111222,99999999' 
TABS,ioos:station:wmo:42047:1,2012-01-03T21:30:00Z,27.8966,-93.5973,2.0,352.2081506,2.876560446,-99999.0,'11133222,11111222,99999999' 
TABS,ioos:station:wmo:42047:1,2012-01-03T22:00:00Z,27.8966,-93.5973,2.0,40.69065564,3.481738072,-99999.0,'11133222,11111222,99999999' 
TABS,ioos:station:wmo:42047:1,2012-01-03T22:30:00Z,27.8966,-93.5973,2.0,33.52963266,5.938088918,-99999.0,'11133222,11111222,99999999' 
TABS,ioos:station:wmo:42047:1,2012-01-03T23:00:00Z,27.8966,-93.5973,2.0,32.79463895,6.388153098,-99999.0,'11133222,11111222,99999999' 
TABS,ioos:station:wmo:42047:1,2012-01-03T23:30:00Z,27.8966,-93.5973,2.0,32.142651,7.086106124,-99999.0,'11133222,11111222,99999999' 
TABS,ioos:station:wmo:42047:1,2012-01-04T00:00:00Z,27.8966,-93.5973,2.0,66.29458292,9.053932847,-99999.0,'11133222,11111222,99999999' 
TABS,ioos:station:wmo:42047:1,2012-01-04T00:30:00Z,27.8966,-93.5973,2.0,58.20183945,14.36624516,-99999.0,'11111222,11111222,99999999' 
TABS,ioos:station:wmo:42047:1,2012-01-04T01:00:00Z,27.8966,-93.5973,2.0,57.66280568,9.515760611,-99999.0,'11133222,11111222,99999999' 
TABS,ioos:station:wmo:42047:1,2012-01-04T01:30:00Z,27.8966,-93.5973,2.0,44.13205581,10.26836891,-99999.0,'11111222,11111222,99999999' 
TABS,ioos:station:wmo:42047:1,2012-01-04T02:00:00Z,27.8966,-93.5973,2.0,53.21329451,9.652010153,-99999.0,'11133222,11111222,99999999' 
TABS,ioos:station:wmo:42047:1,2012-01-04T02:30:00Z,27.8966,-93.5973,2.0,58.46269021,8.565068593,-99999.0,'11133222,11111222,99999999' 
TABS,ioos:station:wmo:42047:1,2012-01-04T03:00:00Z,27.8966,-93.5973,2.0,68.40474005,11.35720036,-99999.0,'11111222,11111222,99999999' 
TABS,ioos:station:wmo:42047:1,2012-01-04T03:30:00Z,27.8966,-93.5973,2.0,42.11714852,9.841239759,-99999.0,'11133222,11111222,99999999' 
TABS,ioos:station:wmo:42047:1,2012-01-04T04:00:00Z,27.8966,-93.5973,2.0,59.13749607,10.68266353,-99999.0,'11111222,11111222,99999999' 
TABS,ioos:station:wmo:42047:1,2012-01-04T04:30:00Z,27.8966,-93.5973,2.0,57.46303856,12.68024053,-99999.0,'11111222,11111222,99999999' 
TABS,ioos:station:wmo:42047:1,2012-01-04T05:00:00Z,27.8966,-93.5973,2.0,88.58906248,6.091847011,-99999.0,'11133222,11111222,99999999' 
TABS,ioos:station:wmo:42047:1,2012-01-04T05:30:00Z,27.8966,-93.5973,2.0,140.2515156,6.412090143,-99999.0,'11133222,11111222,99999999' 
TABS,ioos:station:wmo:42047:1,2012-01-04T06:00:00Z,27.8966,-93.5973,2.0,165.0792471,10.21439181,-99999.0,'11111222,11111222,99999999' 
TABS,ioos:station:wmo:42047:1,2012-01-04T06:30:00Z,27.8966,-93.5973,2.0,158.886985,8.189755796,-99999.0,'11133222,11111222,99999999' 
TABS,ioos:station:wmo:42047:1,2012-01-04T07:00:00Z,27.8966,-93.5973,2.0,169.7581178,5.68051054,-99999.0,'11133222,11111222,99999999' 
TABS,ioos:station:wmo:42047:1,2012-01-04T07:30:00Z,27.8966,-93.5973,2.0,170.4427077,9.937932381,-99999.0,'11133222,11111222,99999999' 
TABS,ioos:station:wmo:42047:1,2012-01-04T08:00:00Z,27.8966,-93.5973,2.0,159.1499404,11.18225827,-99999.0,'11111222,11111222,99999999' 
TABS,ioos:station:wmo:42047:1,2012-01-04T08:30:00Z,27.8966,-93.5973,2.0,157.5245867,13.10542636,-99999.0,'11111222,11111222,99999999' 
TABS,ioos:station:wmo:42047:1,2012-01-04T09:00:00Z,27.8966,-93.5973,2.0,167.0381093,14.35578281,-99999.0,'11111222,11111222,99999999' 
TABS,ioos:station:wmo:42047:1,2012-01-04T09:30:00Z,27.8966,-93.5973,2.0,168.2192933,7.64094235,-99999.0,'11133222,11111222,99999999' 
TABS,ioos:station:wmo:42047:1,2012-01-04T10:00:00Z,27.8966,-93.5973,2.0,170.8622466,9.571462793,-99999.0,'11133222,11111222,99999999' 
TABS,ioos:station:wmo:42047:1,2012-01-04T10:30:00Z,27.8966,-93.5973,2.0,168.2063874,7.436988638,-99999.0,'11133222,11111222,99999999' 
TABS,ioos:station:wmo:42047:1,2012-01-04T11:00:00Z,27.8966,-93.5973,2.0,173.6468831,4.970523111,-99999.0,'11133222,11111222,99999999' 
TABS,ioos:station:wmo:42047:1,2012-01-04T11:30:00Z,27.8966,-93.5973,2.0,138.5492378,9.365916933,-99999.0,'11133222,11111222,99999999' 
TABS,ioos:station:wmo:42047:1,2012-01-04T12:00:00Z,27.8966,-93.5973,2.0,133.6210536,3.232413959,-99999.0,'11133222,11111222,99999999' 
TABS,ioos:station:wmo:42047:1,2012-01-04T12:30:00Z,27.8966,-93.5973,2.0,143.2419382,4.094007816,-99999.0,'11133222,11111222,99999999' 
TABS,ioos:station:wmo:42047:1,2012-01-04T13:00:00Z,27.8966,-93.5973,2.0,123.7881817,3.236680398,-99999.0,'11133222,11111222,99999999' 
TABS,ioos:station:wmo:42047:1,2012-01-04T13:30:00Z,27.8966,-93.5973,2.0,150.1915158,6.718965694,-99999.0,'11133222,11111222,99999999' 
TABS,ioos:station:wmo:42047:1,2012-01-04T14:00:00Z,27.8966,-93.5973,2.0,146.330628,7.629901703,-99999.0,'11133222,11111222,99999999' 
TABS,ioos:station:wmo:42047:1,2012-01-04T14:30:00Z,27.8966,-93.5973,2.0,131.8910452,4.43301252,-99999.0,'11133222,11111222,99999999' 
TABS,ioos:station:wmo:42047:1,2012-01-04T15:00:00Z,27.8966,-93.5973,2.0,92.86239853,4.405496567,-99999.0,'11133222,11111222,99999999' 
TABS,ioos:station:wmo:42047:1,2012-01-04T15:30:00Z,27.8966,-93.5973,2.0,101.3912423,9.670496368,-99999.0,'11133222,11111222,99999999' 
TABS,ioos:station:wmo:42047:1,2012-01-04T16:00:00Z,27.8966,-93.5973,2.0,99.92468317,9.167186046,-99999.0,'11133222,11111222,99999999' 